Regional Weather Roundup
Issued by NWS

Home | Current Version | Previous Version | Graphics & Text | Print | Product List | Glossary On
Versions: 1 2 3 4 5 6 7 8 9 10 11 12 13 14 15 16 17 18 19 20 21 22 23 24 25 26 27 28 29 30 31 32 33 34 35 36 37 38 39 40 41 42 43 44 45 46 47 48 49 50
181
ASUS43 KIND 100609
RWRIN

WEATHER ROUNDUP FOR INDIANA
NATIONAL WEATHER SERVICE INDIANAPOLIS IN
100 AM EST WED FEB 10 2016

NOTE: "FAIR" INDICATES FEW OR NO CLOUDS BELOW 12,000 FEET WITH NO
SIGNIFICANT WEATHER AND/OR OBSTRUCTIONS TO VISIBILITY.

* - STATION DOES NOT REPORT WEATHER SUCH AS PRECIPITATION OR FOG.

+ - STATION NOT QUALITY CONTROLLED BY THE NATIONAL WEATHER SERVICE.
    USE DATA WITH CAUTION...ESPECIALLY DEWPOINT AND RELATIVE
    HUMIDITY OBSERVATIONS.

INZ001>003-010>013-019-020-100700-
NORTHWEST INDIANA

CITY           SKY/WX    TMP DP  RH WIND       PRES   REMARKS
GARY /AIRPORT/ CLOUDY    17   7  63 W14G22    29.95S WCI   3
KNOX *+        CLOUDY    16  10  79 W14       29.90S WCI   1
LA PORTE +     LGT SNOW  19  17  91 NW9G18    29.88S WCI   8
6HR MIN TEMP:  19; 6HR MAX TEMP:  19;

MICHIGAN CITY+ LGT SNOW  19  16  86 W8G17     29.90S WCI   9
MONTICELLO +   FLURRIES  15   7  69 NW17      29.93S WCI  -1
6HR MIN TEMP:  15; 6HR MAX TEMP:  17;

RENSSELAER +   FLURRIES  16  10  79 W14G22    29.94S WCI   1
VALPARAISO     LGT SNOW  15  10  80 W15       29.90F WCI   0
6HR MIN TEMP:  15; 6HR MAX TEMP:  17; 6HR PCP: TRACE;


$$

LMZ046-743>745-100700-
SOUTHERN LAKE MICHIGAN

STATION/POSITION TIME  TEMP    WIND        PRES    WAVE
                       AIR SEA DIR/SP/G            HT
                 (UTC) (F)     (DEG/KT/KT) (MB)    (FT)
BURNS HARBOR     0523   19     300/ 21     1013.5R
MICHIGAN CITY    0500   20     280/ 24/ 27   N/A

$$

INZ004-005-014>016-021>024-100700-
NORTH CENTRAL INDIANA

CITY           SKY/WX    TMP DP  RH WIND       PRES   REMARKS
GOSHEN         LGT SNOW  18  13  80 W15       29.83S WCI   4
6HR MIN TEMP:  18; 6HR MAX TEMP:  21; 6HR PCP: TRACE;

LOGANSPORT +   LGT SNOW  18  10  73 W9        29.92S WCI   6
PERU/GRISSOM   MIX PCPN  16  11  82 W15       29.88S WCI   1
6HR MIN TEMP:  16; 6HR MAX TEMP:  18; 6HR PCP: TRACE;

ROCHESTER +    CLOUDY    19  10  68 W13       29.88F WCI   7
SOUTH BEND     LGT SNOW  19  16  88 W15       29.84F FOG     WCI   5
6HR MIN TEMP:  18; 6HR MAX TEMP:  19; 6HR PCP:  0.01;

WARSAW +       FLURRIES  18  12  79 W16       29.84F WCI   3

$$

INZ006>009-017-018-025>027-100700-
NORTHEAST INDIANA

CITY           SKY/WX    TMP DP  RH WIND       PRES   REMARKS
ANGOLA *+      CLOUDY    18  16  93 W9        29.77F WCI   6
AUBURN +       FLURRIES  19  14  79 W10G18    29.82S WCI   8
FORT WAYNE     FLURRIES  19  12  74 W18       29.85S WCI   4
6HR MIN TEMP:  19; 6HR MAX TEMP:  22; 6HR PCP: TRACE;

HUNTINGTON +   FLURRIES  15   8  74 W14G20    29.86F WCI   1
6HR MIN TEMP:  15; 6HR MAX TEMP:  20;


$$

INZ028-029-035-036-043>045-051>053-100700-
WEST CENTRAL INDIANA

CITY           SKY/WX    TMP DP  RH WIND       PRES   REMARKS
GREENCASTLE +  LGT SNOW  16   9  73 W6        29.96S WCI   7
LAFAYETTE      LGT SNOW  14  10  84 W13       29.96R FOG     WCI   0
6HR MIN TEMP:  14; 6HR MAX TEMP:  16; 6HR PCP: TRACE;

TERRE HAUTE    CLOUDY    15   9  76 W8        30.01S WCI   4
6HR MIN TEMP:  15; 6HR MAX TEMP:  18; 6HR PCP: TRACE;


$$

INZ030>032-037>040-046>048-054>057-064-065-100700-
CENTRAL INDIANA

CITY           SKY/WX    TMP DP  RH WIND       PRES   REMARKS
FRANKFORT +    LGT SNOW  16   6  65 W15       29.94S WCI   1
6HR MIN TEMP:  14; 6HR MAX TEMP:  17;

GREENWOOD *+   CLOUDY    16  14  93 W9        29.95S WCI   4
INDIANAPOLIS   LGT SNOW  15  11  83 W10       29.93S WCI   2
6HR MIN TEMP:  15; 6HR MAX TEMP:  17; 6HR PCP:  0.02;

-EAGLE CREEK   FLURRIES  16  10  77 W12       29.93S WCI   3
6HR MIN TEMP:  15; 6HR MAX TEMP:  17; 6HR PCP: TRACE;

KOKOMO *+      CLOUDY    16   9  73 W14       29.90S WCI   1
6HR MIN TEMP:  16; 6HR MAX TEMP:  18;

MARION +       CLOUDY    15   6  67 W14       29.89F HAZE    WCI   1
MT COMFORT *+  CLOUDY    14   9  79 W14       29.92F WCI  -1
SHELBYVILLE    CLOUDY    17  10  74 W14       29.93F WCI   3
6HR MIN TEMP:  16; 6HR MAX TEMP:  20; 6HR PCP: TRACE;

ZIONSVILLE +   CLOUDY    14   9  82 W9        29.92F WCI   2
6HR MIN TEMP:  12; 6HR MAX TEMP:  16;


$$

INZ033-034-041-042-049-050-058-059-100700-
EAST CENTRAL INDIANA

CITY           SKY/WX    TMP DP  RH WIND       PRES   REMARKS
MUNCIE         CLOUDY    16  10  77 W12       29.89S WCI   3
6HR MIN TEMP:  16; 6HR MAX TEMP:  20; 6HR PCP: TRACE;


$$

INZ060-061-067>069-081>083-085>088-100700-
SOUTHWEST INDIANA

CITY           SKY/WX    TMP DP  RH WIND       PRES   REMARKS
EVANSVILLE     FLURRIES  20  10  65 NW9       30.08S WCI   9
6HR MIN TEMP:  20; 6HR MAX TEMP:  22; 6HR PCP:  0.01;

HUNTINGBURG *+ CLOUDY    19  10  68 NW13      30.05R WCI   7
6HR MIN TEMP:  19; 6HR MAX TEMP:  19;

WASHINGTON +   CLOUDY    18  10  71 W9        30.04S WCI   6
6HR MIN TEMP:  17; 6HR MAX TEMP:  19;


$$

INZ062-063-066-070>080-084-089>092-100700-
SOUTH CENTRAL AND SOUTHEAST INDIANA

CITY           SKY/WX    TMP DP  RH WIND       PRES   REMARKS
BEDFORD +      FLURRIES  16  12  86 W9        29.99S WCI   4
BLOOMINGTON    LGT SNOW  16  11  80 W9        29.97S WCI   4
6HR MIN TEMP:  16; 6HR MAX TEMP:  18; 6HR PCP: TRACE;

MADISON *+     CLOUDY    18  12  79 W6        29.98S WCI   9
NORTH VERNON + CLOUDY    16  10  79 CALM      29.96F
SEYMOUR +      CLOUDY    19  12  73 W8        29.98F WCI   9

$$





USA.gov is the U.S. government's official web portal to all federal, state and local government web resources and services.